Location: *
(37.4917°N, 71.5558°E)
Time: 01:26:55
(UTC+00:00)

Cosmos 921 Rocket - Pass Details

Date: 09 April 2020
Orbit: 572 x 632 km, 75.8° (Epoch: 05 June)

Event Time Altitude Azimuth Distance (km) Brightness Sun altitude
Rises 15:49:12 0° 338° (NNW) 2,784 7.3 -23.9°
Reaches altitude 10° 15:51:27 10° 332° (NNW) 1,885 6.3 -24.3°
Maximum altitude 15:55:29 48° 258° (WSW) 760 3.7 -25.0°
Enters shadow 15:56:00 45° 234° (SW) 793 3.6 -25.0°
